| time (UTC) | temp F | wind direction | speed knots | gust knots | rain 1hr in | rain 24hr in | rain mn in | humidity % | barometer mb |
| 20260505052516 | 62 | 166 | 0.0 | 0.0 | 0.00 | 0.00 | 0.00 | 82 | 1014.5 |
| 20260505052013 | 62 | 166 | 0.0 | 0.0 | 0.00 | 0.00 | 0.00 | 81 | 1014.5 |
| 20260505051510 | 63 | 166 | 0.0 | 0.9 | 0.00 | 0.00 | 0.00 | 80 | 1014.4 |
| 20260505051008 | 63 | 167 | 1.7 | 1.7 | 0.00 | 0.00 | 0.00 | 80 | 1014.5 |
| 20260505050506 | 63 | 163 | 1.7 | 2.6 | 0.00 | 0.00 | 0.00 | 79 | 1014.3 |
| 20260505041433 | 63 | 163 | 1.7 | 2.6 | 0.00 | 0.00 | 0.00 | 79 | 1014.8 |
| 20260505040931 | 63 | 176 | 1.7 | 2.6 | 0.00 | 0.00 | 0.00 | 79 | 1014.8 |
| 20260505040428 | 63 | 190 | 1.7 | 2.6 | 0.00 | 0.00 | 0.00 | 79 | 1014.9 |
| 20260505035925 | 63 | 188 | 1.7 | 1.7 | 0.00 | 0.00 | 0.00 | 79 | 1015.0 |
| 20260505035421 | 63 | 184 | 0.9 | 0.9 | 0.00 | 0.00 | 0.00 | 80 | 1014.7 |
| 20260505034918 | 63 | 184 | 0.0 | 0.0 | 0.00 | 0.00 | 0.00 | 79 | 1014.9 |
| 20260505034414 | 63 | 184 | 0.0 | 0.9 | 0.00 | 0.00 | 0.00 | 79 | 1015.1 |
| 20260505033912 | 64 | 184 | 0.0 | 0.9 | 0.00 | 0.00 | 0.00 | 78 | 1015.2 |
| 20260505033408 | 64 | 175 | 1.7 | 1.7 | 0.00 | 0.00 | 0.00 | 77 | 1015.0 |
| 20260505032907 | 64 | 173 | 1.7 | 2.6 | 0.00 | 0.00 | 0.00 | 76 | 1014.9 |
| 20260505032403 | 64 | 179 | 1.7 | 2.6 | 0.00 | 0.00 | 0.00 | 77 | 1014.8 |
| 20260505031859 | 64 | 172 | 2.6 | 2.6 | 0.00 | 0.00 | 0.00 | 77 | 1014.8 |
| 20260505031356 | 63 | 176 | 1.7 | 1.7 | 0.00 | 0.00 | 0.00 | 79 | 1014.7 |
| 20260505030854 | 64 | 172 | 1.7 | 1.7 | 0.00 | 0.00 | 0.00 | 77 | 1014.6 |
| 20260505030349 | 64 | 162 | 0.9 | 2.6 | 0.00 | 0.00 | 0.00 | 77 | 1014.5 |
| 20260505025845 | 64 | 160 | 0.0 | 1.7 | 0.00 | 0.00 | 0.00 | 77 | 1014.8 |
| 20260505025343 | 64 | 157 | 2.6 | 2.6 | 0.00 | 0.00 | 0.00 | 77 | 1014.8 |
| 20260505024842 | 65 | 147 | 1.7 | 2.6 | 0.00 | 0.00 | 0.00 | 76 | 1014.8 |
| 20260505024339 | 65 | 170 | 3.5 | 5.2 | 0.00 | 0.00 | 0.00 | 72 | 1014.7 |
| 20260505023835 | 65 | 175 | 4.3 | 5.2 | 0.00 | 0.00 | 0.00 | 74 | 1014.6 |
| 20260505023332 | 65 | 181 | 2.6 | 3.5 | 0.00 | 0.00 | 0.00 | 75 | 1014.6 |
| 20260505022830 | 65 | 180 | 2.6 | 5.2 | 0.00 | 0.00 | 0.00 | 73 | 1014.6 |
| 20260505022327 | 65 | 183 | 3.5 | 3.5 | 0.00 | 0.00 | 0.00 | 72 | 1014.6 |
| 20260505021824 | 65 | 161 | 3.5 | 3.5 | 0.00 | 0.00 | 0.00 | 72 | 1014.7 |
| 20260505021320 | 66 | 177 | 3.5 | 3.5 | 0.00 | 0.00 | 0.00 | 71 | 1014.8 |
| 20260505020816 | 66 | 168 | 2.6 | 3.5 | 0.00 | 0.00 | 0.00 | 70 | 1014.4 |
| 20260505020312 | 66 | 172 | 3.5 | 6.1 | 0.00 | 0.00 | 0.00 | 69 | 1014.6 |
| 20260505015809 | 66 | 172 | 3.5 | 5.2 | 0.00 | 0.00 | 0.00 | 70 | 1014.4 |
| 20260505015306 | 66 | 172 | 3.5 | 3.5 | 0.00 | 0.00 | 0.00 | 70 | 1014.5 |
| 20260505014803 | 66 | 175 | 2.6 | 3.5 | 0.00 | 0.00 | 0.00 | 70 | 1014.5 |
| 20260505014300 | 66 | 161 | 3.5 | 3.5 | 0.00 | 0.00 | 0.00 | 70 | 1014.4 |
| 20260505013757 | 66 | 169 | 3.5 | 5.2 | 0.00 | 0.00 | 0.00 | 69 | 1014.4 |
| 20260505013254 | 67 | 163 | 4.3 | 6.1 | 0.00 | 0.00 | 0.00 | 67 | 1014.1 |
| 20260505012752 | 66 | 163 | 4.3 | 5.2 | 0.00 | 0.00 | 0.00 | 68 | 1013.9 |
| 20260505012250 | 67 | 182 | 4.3 | 5.2 | 0.00 | 0.00 | 0.00 | 67 | 1014.1 |
| 20260505011745 | 67 | 163 | 5.2 | 6.1 | 0.00 | 0.00 | 0.00 | 67 | 1014.1 |
| 20260505011242 | 68 | 182 | 2.6 | 3.5 | 0.00 | 0.00 | 0.00 | 67 | 1014.4 |
| 20260505010738 | 68 | 156 | 3.5 | 5.2 | 0.00 | 0.00 | 0.00 | 65 | 1014.1 |
| 20260505010234 | 68 | 170 | 4.3 | 5.2 | 0.00 | 0.00 | 0.00 | 65 | 1014.2 |
| 20260505005731 | 68 | 181 | 3.5 | 5.2 | 0.00 | 0.00 | 0.00 | 65 | 1014.2 |
| 20260505005228 | 68 | 167 | 3.5 | 5.2 | 0.00 | 0.00 | 0.00 | 65 | 1014.0 |
| 20260505004725 | 68 | 180 | 3.5 | 3.5 | 0.00 | 0.00 | 0.00 | 66 | 1014.1 |
| 20260505004221 | 69 | 174 | 2.6 | 3.5 | 0.00 | 0.00 | 0.00 | 65 | 1014.3 |
| 20260505003719 | 69 | 178 | 3.5 | 6.1 | 0.00 | 0.00 | 0.00 | 62 | 1014.6 |
| 20260505003217 | 70 | 175 | 5.2 | 6.1 | 0.00 | 0.00 | 0.00 | 59 | 1014.4 |
| 20260505002712 | 70 | 165 | 2.6 | 5.2 | 0.00 | 0.00 | 0.00 | 58 | 1014.5 |
| 20260505002210 | 69 | 181 | 3.5 | 3.5 | 0.00 | 0.00 | 0.00 | 61 | 1014.5 |
| 20260505001708 | 70 | 176 | 2.6 | 2.6 | 0.00 | 0.00 | 0.00 | 60 | 1014.5 |
| 20260505001205 | 71 | 184 | 2.6 | 3.5 | 0.00 | 0.00 | 0.00 | 57 | 1014.4 |
| 20260505000702 | 71 | 173 | 1.7 | 3.5 | 0.00 | 0.00 | 0.00 | 56 | 1014.4 |
| 20260505000200 | 71 | 184 | 3.5 | 3.5 | 0.00 | 0.00 | 0.00 | 53 | 1014.6 |
| 20260504235656 | 72 | 185 | 3.5 | 5.2 | 0.00 | 0.00 | 0.00 | 52 | 1014.4 |
| 20260504235152 | 72 | 162 | 6.1 | 7.8 | 0.00 | 0.00 | 0.00 | 49 | 1014.6 |
| 20260504234650 | 73 | 186 | 5.2 | 7.0 | 0.00 | 0.00 | 0.00 | 48 | 1014.3 |
| 20260504234147 | 73 | 183 | 5.2 | 7.0 | 0.00 | 0.00 | 0.00 | 45 | 1014.3 |
| 20260504233642 | 74 | 189 | 6.1 | 7.0 | 0.00 | 0.00 | 0.00 | 43 | 1014.5 |
| 20260504233138 | 74 | 193 | 5.2 | 7.8 | 0.00 | 0.00 | 0.00 | 43 | 1014.5 |
| 20260504232637 | 74 | 204 | 4.3 | 6.1 | 0.00 | 0.00 | 0.00 | 44 | 1014.9 |
| 20260504232133 | 74 | 199 | 6.1 | 7.8 | 0.00 | 0.00 | 0.00 | 42 | 1014.8 |
| 20260504231630 | 75 | 184 | 7.0 | 9.6 | 0.00 | 0.00 | 0.00 | 42 | 1014.8 |
| 20260504231126 | 75 | 173 | 6.1 | 8.7 | 0.00 | 0.00 | 0.00 | 42 | 1014.8 |
| 20260504230622 | 75 | 140 | 6.1 | 8.7 | 0.00 | 0.00 | 0.00 | 42 | 1014.7 |
| 20260504230121 | 75 | 204 | 7.0 | 7.8 | 0.00 | 0.00 | 0.00 | 43 | 1014.8 |
| 20260504225619 | 75 | 175 | 6.1 | 7.0 | 0.00 | 0.00 | 0.00 | 42 | 1014.7 |
| 20260504225115 | 75 | 174 | 4.3 | 7.0 | 0.00 | 0.00 | 0.00 | 44 | 1014.9 |
| 20260504224612 | 76 | 171 | 7.0 | 11.3 | 0.00 | 0.00 | 0.00 | 40 | 1014.9 |
| 20260504224109 | 76 | 187 | 6.1 | 7.8 | 0.00 | 0.00 | 0.00 | 42 | 1014.8 |
| 20260504223606 | 76 | 186 | 6.1 | 8.7 | 0.00 | 0.00 | 0.00 | 41 | 1015.0 |
| 20260504223101 | 76 | 180 | 6.1 | 9.6 | 0.00 | 0.00 | 0.00 | 40 | 1015.2 |
| 20260504222559 | 76 | 180 | 7.0 | 7.8 | 0.00 | 0.00 | 0.00 | 42 | 1015.1 |
| 20260504222056 | 76 | 160 | 6.1 | 8.7 | 0.00 | 0.00 | 0.00 | 40 | 1015.2 |
| 20260504221553 | 76 | 153 | 7.0 | 11.3 | 0.00 | 0.00 | 0.00 | 41 | 1015.0 |
| 20260504221050 | 76 | 172 | 7.0 | 9.6 | 0.00 | 0.00 | 0.00 | 42 | 1015.3 |
| 20260504220546 | 76 | 176 | 7.0 | 7.8 | 0.00 | 0.00 | 0.00 | 40 | 1015.3 |
| 20260504220043 | 77 | 196 | 6.1 | 11.3 | 0.00 | 0.00 | 0.00 | 42 | 1015.3 |
| 20260504215539 | 76 | 161 | 8.7 | 11.3 | 0.00 | 0.00 | 0.00 | 41 | 1015.4 |
| 20260504215037 | 77 | 193 | 5.2 | 9.6 | 0.00 | 0.00 | 0.00 | 43 | 1015.4 |
| 20260504214533 | 76 | 241 | 7.0 | 9.6 | 0.00 | 0.00 | 0.00 | 40 | 1015.3 |
| 20260504214030 | 77 | 200 | 7.8 | 9.6 | 0.00 | 0.00 | 0.00 | 43 | 1015.4 |
| 20260504213526 | 77 | 189 | 6.1 | 8.7 | 0.00 | 0.00 | 0.00 | 44 | 1015.3 |
| 20260504213024 | 77 | 183 | 9.6 | 12.2 | 0.00 | 0.00 | 0.00 | 43 | 1015.4 |
| 20260504212519 | 77 | 192 | 7.8 | 8.7 | 0.00 | 0.00 | 0.00 | 40 | 1015.5 |
| 20260504212017 | 78 | 186 | 4.3 | 6.1 | 0.00 | 0.00 | 0.00 | 41 | 1015.8 |
| 20260504211513 | 77 | 191 | 3.5 | 6.1 | 0.00 | 0.00 | 0.00 | 42 | 1015.5 |
| 20260504211011 | 77 | 175 | 5.2 | 9.6 | 0.00 | 0.00 | 0.00 | 40 | 1015.7 |
| 20260504210508 | 77 | 174 | 7.8 | 13.9 | 0.00 | 0.00 | 0.00 | 43 | 1015.7 |
| 20260504210004 | 77 | 188 | 4.3 | 11.3 | 0.00 | 0.00 | 0.00 | 42 | 1015.7 |
| 20260504205502 | 77 | 149 | 3.5 | 3.5 | 0.00 | 0.00 | 0.00 | 44 | 1015.6 |
| 20260504205000 | 77 | 187 | 3.5 | 7.8 | 0.00 | 0.00 | 0.00 | 43 | 1015.6 |
| 20260504204458 | 77 | 174 | 5.2 | 7.8 | 0.00 | 0.00 | 0.00 | 46 | 1015.8 |
| 20260504203957 | 77 | 168 | 3.5 | 7.0 | 0.00 | 0.00 | 0.00 | 44 | 1016.0 |
| 20260504203454 | 77 | 189 | 2.6 | 7.8 | 0.00 | 0.00 | 0.00 | 44 | 1016.0 |
| 20260504202950 | 77 | 153 | 10.4 | 13.0 | 0.00 | 0.00 | 0.00 | 43 | 1016.0 |
| 20260504202447 | 77 | 169 | 6.1 | 11.3 | 0.00 | 0.00 | 0.00 | 41 | 1016.0 |
| 20260504201943 | 77 | 184 | 7.8 | 12.2 | 0.00 | 0.00 | 0.00 | 46 | 1016.3 |
| 20260504201441 | 77 | 210 | 7.0 | 11.3 | 0.00 | 0.00 | 0.00 | 45 | 1016.3 |
| 20260504200938 | 77 | 190 | 7.0 | 8.7 | 0.00 | 0.00 | 0.00 | 43 | 1016.4 |
| 20260504200435 | 77 | 157 | 4.3 | 8.7 | 0.00 | 0.00 | 0.00 | 43 | 1016.6 |
| 20260504195931 | 77 | 184 | 2.6 | 6.1 | 0.00 | 0.00 | 0.00 | 46 | 1016.5 |
| 20260504195427 | 77 | 178 | 7.8 | 11.3 | 0.00 | 0.00 | 0.00 | 47 | 1016.7 |
| 20260504194924 | 77 | 204 | 0.9 | 2.6 | 0.00 | 0.00 | 0.00 | 44 | 1016.8 |
| 20260504194420 | 78 | 193 | 7.8 | 14.8 | 0.00 | 0.00 | 0.00 | 41 | 1016.9 |
| 20260504193916 | 78 | 233 | 5.2 | 6.1 | 0.00 | 0.00 | 0.00 | 45 | 1017.1 |
| 20260504193414 | 77 | 199 | 7.8 | 9.6 | 0.00 | 0.00 | 0.00 | 46 | 1017.2 |
| 20260504192912 | 77 | 158 | 4.3 | 7.0 | 0.00 | 0.00 | 0.00 | 47 | 1017.2 |
| 20260504192409 | 77 | 163 | 1.7 | 2.6 | 0.00 | 0.00 | 0.00 | 47 | 1017.2 |
| 20260504191908 | 77 | 207 | 3.5 | 5.2 | 0.00 | 0.00 | 0.00 | 48 | 1017.1 |
| 20260504191405 | 78 | 210 | 2.6 | 6.1 | 0.00 | 0.00 | 0.00 | 42 | 1017.3 |
| 20260504190900 | 77 | 167 | 6.1 | 8.7 | 0.00 | 0.00 | 0.00 | 43 | 1017.5 |
| 20260504190356 | 77 | 185 | 7.8 | 12.2 | 0.00 | 0.00 | 0.00 | 45 | 1017.4 |
| 20260504185853 | 77 | 215 | 5.2 | 9.6 | 0.00 | 0.00 | 0.00 | 43 | 1017.2 |
| 20260504185350 | 77 | 163 | 3.5 | 6.1 | 0.00 | 0.00 | 0.00 | 42 | 1017.3 |
| 20260504184846 | 76 | 177 | 1.7 | 6.1 | 0.00 | 0.00 | 0.00 | 46 | 1017.4 |
| 20260504184342 | 77 | 169 | 10.4 | 12.2 | 0.00 | 0.00 | 0.00 | 43 | 1017.6 |
| 20260504183838 | 77 | 149 | 1.7 | 7.8 | 0.00 | 0.00 | 0.00 | 45 | 1017.6 |
| 20260504183336 | 76 | 136 | 6.1 | 8.7 | 0.00 | 0.00 | 0.00 | 43 | 1017.7 |
| 20260504182833 | 76 | 90 | 4.3 | 9.6 | 0.00 | 0.00 | 0.00 | 45 | 1017.7 |
| 20260504182331 | 76 | 146 | 6.1 | 8.7 | 0.00 | 0.00 | 0.00 | 46 | 1017.8 |
| 20260504181828 | 76 | 182 | 7.8 | 8.7 | 0.00 | 0.00 | 0.00 | 46 | 1017.8 |
| 20260504181325 | 76 | 161 | 5.2 | 7.8 | 0.00 | 0.00 | 0.00 | 47 | 1017.9 |
| 20260504180824 | 76 | 196 | 6.1 | 9.6 | 0.00 | 0.00 | 0.00 | 43 | 1018.1 |
| 20260504180322 | 76 | 182 | 1.7 | 5.2 | 0.00 | 0.00 | 0.00 | 45 | 1018.1 |
| 20260504175820 | 76 | 156 | 5.2 | 8.7 | 0.00 | 0.00 | 0.00 | 46 | 1018.0 |
| 20260504175316 | 76 | 175 | 1.7 | 7.8 | 0.00 | 0.00 | 0.00 | 44 | 1017.9 |
| 20260504174815 | 77 | 184 | 7.0 | 8.7 | 0.00 | 0.00 | 0.00 | 41 | 1018.1 |
| 20260504174312 | 77 | 179 | 4.3 | 11.3 | 0.00 | 0.00 | 0.00 | 44 | 1018.1 |
| 20260504173808 | 77 | 216 | 1.7 | 3.5 | 0.00 | 0.00 | 0.00 | 43 | 1018.2 |
| 20260504173305 | 77 | 165 | 4.3 | 5.2 | 0.00 | 0.00 | 0.00 | 45 | 1018.1 |
| 20260504172802 | 76 | 174 | 5.2 | 9.6 | 0.00 | 0.00 | 0.00 | 42 | 1018.2 |
| 20260504172259 | 75 | 182 | 6.1 | 11.3 | 0.00 | 0.00 | 0.00 | 43 | 1018.3 |
| 20260504171754 | 75 | 167 | 5.2 | 11.3 | 0.00 | 0.00 | 0.00 | 44 | 1018.2 |
| 20260504171252 | 75 | 176 | 9.6 | 13.0 | 0.00 | 0.00 | 0.00 | 41 | 1018.3 |
| 20260504170749 | 75 | 178 | 5.2 | 8.7 | 0.00 | 0.00 | 0.00 | 44 | 1018.0 |
| 20260504170246 | 75 | 202 | 9.6 | 12.2 | 0.00 | 0.00 | 0.00 | 44 | 1018.1 |
| 20260504160204 | 75 | 178 | 7.0 | 7.8 | 0.00 | 0.00 | 0.00 | 43 | 1018.7 |
| 20260504151132 | 74 | 179 | 7.0 | 8.7 | 0.00 | 0.00 | 0.00 | 49 | 1018.9 |
| 20260504150630 | 73 | 200 | 5.2 | 8.7 | 0.00 | 0.00 | 0.00 | 46 | 1018.9 |
| 20260504150126 | 73 | 140 | 3.5 | 7.0 | 0.00 | 0.00 | 0.00 | 47 | 1018.9 |
| 20260504141055 | 70 | 64 | 1.7 | 2.6 | 0.00 | 0.00 | 0.00 | 66 | 1019.1 |
| 20260504140551 | 69 | 63 | 0.0 | 2.6 | 0.00 | 0.00 | 0.00 | 68 | 1019.3 |
| 20260504130516 | 67 | 62 | 0.0 | 0.0 | 0.00 | 0.00 | 0.00 | 72 | 1019.1 |
| 20260504110403 | 53 | 151 | 0.0 | 0.0 | 0.00 | 0.00 | 0.00 | 96 | 1018.1 |
| 20260504100320 | 53 | 151 | 0.0 | 0.0 | 0.00 | 0.00 | 0.00 | 95 | 1018.3 |
| 20260504081714 | 55 | 166 | 0.0 | 0.0 | 0.00 | 0.00 | 0.00 | 89 | 1018.5 |
| 20260504081210 | 55 | 166 | 0.0 | 0.0 | 0.00 | 0.00 | 0.00 | 90 | 1018.1 |
| 20260504080707 | 55 | 166 | 0.9 | 1.7 | 0.00 | 0.00 | 0.00 | 90 | 1018.3 |
| 20260504080203 | 55 | 167 | 1.7 | 2.6 | 0.00 | 0.00 | 0.00 | 88 | 1018.4 |
| 20260504070131 | 55 | 151 | 0.0 | 0.0 | 0.00 | 0.00 | 0.00 | 89 | 1019.0 |